Location: Rounton
(54.4000°N, 1.3500°W)
Time: 17:55:14
(UTC+01:00)

S-56A Canister/Altair - Pass Details

Date: 14 September 2024
Orbit: 636 x 2487 km, 38.9° (Epoch: 06 October)

Event Time Altitude Azimuth Distance (km) Brightness Sun altitude
Rises 21:01:44 0° 230° (SW) 3,520 11.2 -14.5°
Reaches altitude 10° 21:04:27 10° 216° (SW) 2,793 10.5 -14.9°
Maximum altitude 21:09:49 25° 164° (SSE) 2,321 9.6 -15.6°
Enters shadow 21:13:01 20° 135° (SE) 2,815 9.8 -16.0°
Drops below altitude 10° 21:16:59 10° 115° (ESE) 3,844 - -16.5°
Sets 21:21:30 0° 104° (ESE) 5,179 - -17.0°
